Regional Weather Roundup
Issued by NWS

Home | Current Version | Previous Version | Graphics & Text | Print | Product List | Glossary On
Versions: 1 2 3 4 5 6 7 8 9 10 11 12 13 14 15 16 17 18 19 20 21 22 23 24 25 26 27 28 29 30 31 32 33 34 35 36 37 38 39 40 41 42 43 44 45 46 47 48 49 50
007
ASUS45 KSLC 100410
RWRUT

UTAH REGIONAL WEATHER ROUNDUP
NATIONAL WEATHER SERVICE SALT LAKE CITY UT
900 PM MST FRI DEC 09 2016

UTZ001>011-023>025-100500-

NORTHERN UTAH

CITY           SKY/WX    TMP DP  RH WIND       PRES   REMARKS
BRIGHAM CITY     N/A     33  31  92 CALM      30.09S
HILL AFB       CLOUDY    38  31  76 SW8       30.07F WCI  32
LOGAN          CLOUDY    33  33 100 E5        30.07S FOG     WCI  29
OGDEN          CLOUDY    34  31  88 W3        30.07F
SALT LAKE CITY CLOUDY    34  29  82 CALM      30.06F
WENDOVER       MOCLDY    27  21  80 NE5       30.07F WCI  21
HEBER CITY     MOCLDY    30  27  86 CALM      30.09F

$$

UTZ011>015-024>027-100500-

CENTRAL/NORTHEAST UTAH

CITY           SKY/WX    TMP DP  RH WIND       PRES   REMARKS
PROVO AIRPORT  MOCLDY    34  30  85 SE7       30.12F WCI  28
MOAB/CANYONLAN PTCLDY    27  10  49 W3        30.23S
DELTA          CLOUDY    45  28  53 S14G20    30.12S
PRICE          PTCLDY    23  11  60 N7        30.22S WCI  15
ROOSEVELT      CLOUDY    23  19  86 CALM      30.22R
VERNAL         CLOUDY    22  15  75 NW3       30.19S

$$

UTZ013>016-019>022-027-100500-

SOUTHERN UTAH

CITY           SKY/WX    TMP DP  RH WIND       PRES   REMARKS
BRYCE CANYON   MOCLDY    19  16  88 CALM      30.25S
CEDAR CITY     PTCLDY    33  27  78 SE5       30.18F WCI  29
MILFORD        MOCLDY    39  30  70 S18       30.15F WCI  30
ST GEORGE      MOCLDY    39  21  48 SE5       30.24F
HANKSVILLE     MOCLDY    27   9  46 CALM      30.28S
KANAB          MOCLDY    32  28  86 NE6       30.28R WCI  26
BLANDING       PTCLDY    30  21  69 CALM      30.33S

$$

REGIONAL REPORTS     COLORADO/ARIZONA

CITY           SKY/WX    TMP DP  RH WIND       PRES   REMARKS
CRAIG, CO      CLOUDY    29  25  85 VRB5      30.14F WCI  24
GRAND JUNCTION CLOUDY    26  19  74 E5        30.24F WCI  20
RIFLE, CO      CLOUDY    29  22  75 CALM      30.24F
MONTROSE, CO   CLOUDY    25  19  78 S7        30.27S WCI  17
CORTEZ, CO     CLOUDY    26  23  88 E5        30.27F WCI  20
COLORADO CITY    N/A     32  28  86 SE7       30.26S WCI  26
PAGE, AZ       MOCLDY    38  15  39 CALM      30.23S
GRAND CANYON   PTCLDY    28  27  96 CALM      30.27R
KINGMAN, AZ    MOCLDY    39  28  64 SE3       30.21S
FLAGSTAFF, AZ  PTCLDY    27  25  92 CALM      30.28S

$$

REGIONAL REPORTS    NEVADA/IDAHO/WYOMING

CITY           SKY/WX    TMP DP  RH WIND       PRES   REMARKS
LAS VEGAS, NV  MOCLDY    50  13  22 CALM      30.22R
ELY, NY        CLEAR     30  21  69 CALM      30.17S
ELKO, NV       CLOUDY    38  26  62 MISG      30.05F
POCATELLO, ID  LGT RAIN  37  33  85 S12       30.01F WCI  29
BURLEY, ID     LGT RAIN  41  33  73 SW13      29.98F
FORT BRIDGER,    N/A     33  27  76 CALM      30.08S
EVANSTON, WY   CLOUDY    31  24  75 SW15      30.06F WCI  20
ROCK SPRINGS,  CLOUDY    33  27  78 SW16      30.06F WCI  23
KEMMERER, WY     N/A     30  28  93 W9        30.05F WCI  22

$$




USA.gov is the U.S. government's official web portal to all federal, state and local government web resources and services.